Погода в Пачелме

Россия / Пензенская область     53°14′32″N   43°21′01″E
темп.,
°C
ветер,
м/с
пор.,
м/с
влажн.,
%
обл.,
%
осадки,
мм/ч
давл.,
гПа
погр.,
м
1 декабря, ср
ср100:00+1юз81373100 0.0 993960
03:000юз61177100 0.0 992674
06:00−1зюз51080100 0.0 992640
09:00−1зюз4776100 0.0 993608
12:000з5766100 0.0 993684
15:00−1зюз696714 0.0 994921
18:00−1зюз611675 0.0 995884
21:00−2зюз611737 0.0 997821
2 декабря, чт
чт200:00−2юз5107867 0.0 998534
03:00−1юз61089100 0.1 999867
06:00−2з697169 0.2 1001999
09:00−3з6966100 0.3 10041116
12:00−3з7961100 0.0 10061045
15:00−3зюз595656 0.0 1008843
18:00−2юз5116496 0.0 1008657
21:00−2ююз7147188 0.0 1008695
3 декабря, пт
пт300:00−2ююз71695100 1.0 1007645
03:000юз71698100 2.4 1007631
06:00+1юз71598100 0.4 1007575
09:00+1юз61496100 0.4 1009532
12:00+2юз61296100 0.0 1010558
15:00+2ююз51196100 0.0 1011346
18:00+2ю61398100 0.0 1011365
21:00+3ю71698100 0.0 1010529
4 декабря, сб
сб400:00+4ю91992100 0.0 1008570
03:00+3ю91986100 0.0 1007621
06:00+3ююз101884100 0.0 1005642
09:00+2з7997100 2.3 1007649
12:00+1з4886100 1.0 1009629
15:00+1з4779100 1.0 1011501
18:00−1зюз488044 0.0 1012287
21:00−2з48805 0.0 1014354
5 декабря, вс
вс500:00−2з488413 0.0 1015506
03:00−3зсз488442 0.0 1017567
06:00−3з4881100 0.0 1018468
09:00−3зсз3680100 0.0 1019453
12:00−2зсз45715 0.0 1020519
15:00−2сз247480 0.0 1021324
18:00−3с22795 0.0 102231
21:00−4св227892 0.0 102326